Year,Month,Day,Hour,Minute,Value (Times are PST for temperature in C)
2015,05,18,00,00,12.60
2015,05,18,00,01,12.60
2015,05,18,00,02,12.60
2015,05,18,00,03,12.60
2015,05,18,00,04,12.60
2015,05,18,00,05,12.60
2015,05,18,00,06,12.60
2015,05,18,00,07,12.60
2015,05,18,00,08,12.60
2015,05,18,00,09,12.60
2015,05,18,00,10,12.60
2015,05,18,00,11,12.60
2015,05,18,00,12,12.60
2015,05,18,00,13,12.60
2015,05,18,00,14,12.60
2015,05,18,00,15,12.50
2015,05,18,00,16,12.50
2015,05,18,00,17,12.50
2015,05,18,00,18,12.40
2015,05,18,00,19,12.40
2015,05,18,00,20,12.40
2015,05,18,00,21,12.40
2015,05,18,00,22,12.40
2015,05,18,00,23,12.40
2015,05,18,00,24,12.40
2015,05,18,00,25,12.40
2015,05,18,00,26,12.40
2015,05,18,00,27,12.40
2015,05,18,00,28,12.40
2015,05,18,00,29,12.40
2015,05,18,00,30,12.40
2015,05,18,00,31,12.40
2015,05,18,00,32,12.40
2015,05,18,00,33,12.40
2015,05,18,00,34,12.40
2015,05,18,00,35,12.30
2015,05,18,00,36,12.30
2015,05,18,00,37,12.30
2015,05,18,00,38,12.30
2015,05,18,00,39,12.30
2015,05,18,00,40,12.30
2015,05,18,00,41,12.30
2015,05,18,00,42,12.30
2015,05,18,00,43,12.30
2015,05,18,00,44,12.30
2015,05,18,00,45,12.30
2015,05,18,00,46,12.30
2015,05,18,00,47,12.30
2015,05,18,00,48,12.30
2015,05,18,00,49,12.30
2015,05,18,00,50,12.30
2015,05,18,00,51,12.30
2015,05,18,00,52,12.30
2015,05,18,00,53,12.30
2015,05,18,00,54,12.20
2015,05,18,00,55,12.20
2015,05,18,00,56,12.20
2015,05,18,00,57,12.20
2015,05,18,00,58,12.20
2015,05,18,00,59,12.20
2015,05,18,01,00,12.20
2015,05,18,01,01,12.30
2015,05,18,01,02,12.30
2015,05,18,01,03,12.30
2015,05,18,01,04,12.30
2015,05,18,01,05,12.30
2015,05,18,01,06,12.30
2015,05,18,01,07,12.30
2015,05,18,01,08,12.30
2015,05,18,01,09,12.30
2015,05,18,01,10,12.30
2015,05,18,01,11,12.30
2015,05,18,01,12,12.30
2015,05,18,01,13,12.30
2015,05,18,01,14,12.30
2015,05,18,01,15,12.30
2015,05,18,01,16,12.20
2015,05,18,01,17,12.20
2015,05,18,01,18,12.20
2015,05,18,01,19,12.20
2015,05,18,01,20,12.10
2015,05,18,01,21,12.10
2015,05,18,01,22,12.10
2015,05,18,01,23,12.10
2015,05,18,01,24,12.10
2015,05,18,01,25,12.10
2015,05,18,01,26,12.10
2015,05,18,01,27,12.10
2015,05,18,01,28,12.10
2015,05,18,01,29,12.10
2015,05,18,01,30,12.10
2015,05,18,01,31,12.10
2015,05,18,01,32,12.10
2015,05,18,01,33,12.00
2015,05,18,01,34,12.00
2015,05,18,01,35,12.00
2015,05,18,01,36,12.00
2015,05,18,01,37,11.90
2015,05,18,01,38,11.90
2015,05,18,01,39,11.90
2015,05,18,01,40,11.90
2015,05,18,01,41,11.80
2015,05,18,01,42,11.80
2015,05,18,01,43,11.80
2015,05,18,01,44,11.80
2015,05,18,01,45,11.80
2015,05,18,01,46,11.80
2015,05,18,01,47,11.80
2015,05,18,01,48,11.80
2015,05,18,01,49,11.80
2015,05,18,01,50,11.80
2015,05,18,01,51,11.80
2015,05,18,01,52,11.70
2015,05,18,01,53,11.70
2015,05,18,01,54,11.70
2015,05,18,01,55,11.70
2015,05,18,01,56,11.70
2015,05,18,01,57,11.70
2015,05,18,01,58,11.70
2015,05,18,01,59,11.70
2015,05,18,02,00,11.80
2015,05,18,02,01,11.80
2015,05,18,02,02,11.80
2015,05,18,02,03,11.80
2015,05,18,02,04,11.80
2015,05,18,02,05,11.80
2015,05,18,02,06,11.80
2015,05,18,02,07,11.80
2015,05,18,02,08,11.80
2015,05,18,02,09,11.80
2015,05,18,02,10,11.80
2015,05,18,02,11,11.80
2015,05,18,02,12,11.90
2015,05,18,02,13,11.90
2015,05,18,02,14,11.90
2015,05,18,02,15,11.90
2015,05,18,02,16,11.90
2015,05,18,02,17,11.90
2015,05,18,02,18,11.90
2015,05,18,02,19,11.90
2015,05,18,02,20,11.90
2015,05,18,02,21,11.90
2015,05,18,02,22,11.90
2015,05,18,02,23,11.90
2015,05,18,02,24,11.90
2015,05,18,02,25,11.90
2015,05,18,02,26,11.90
2015,05,18,02,27,11.90
2015,05,18,02,28,11.90
2015,05,18,02,29,11.90
2015,05,18,02,30,11.90
2015,05,18,02,31,11.90
2015,05,18,02,32,11.80
2015,05,18,02,33,11.80
2015,05,18,02,34,11.80
2015,05,18,02,35,11.80
2015,05,18,02,36,11.80
2015,05,18,02,37,11.80
2015,05,18,02,38,11.80
2015,05,18,02,39,11.80
2015,05,18,02,40,11.80
2015,05,18,02,41,11.80
2015,05,18,02,42,11.80
2015,05,18,02,43,11.80
2015,05,18,02,44,11.80
2015,05,18,02,45,11.80
2015,05,18,02,46,11.80
2015,05,18,02,47,11.70
2015,05,18,02,48,11.70
2015,05,18,02,49,11.70
2015,05,18,02,50,11.70
2015,05,18,02,51,11.70
2015,05,18,02,52,11.70
2015,05,18,02,53,11.70
2015,05,18,02,54,11.70
2015,05,18,02,55,11.60
2015,05,18,02,56,11.60
2015,05,18,02,57,11.60
2015,05,18,02,58,11.60
2015,05,18,02,59,11.60
2015,05,18,03,00,11.60
2015,05,18,03,01,11.60
2015,05,18,03,02,11.60
2015,05,18,03,03,11.50
2015,05,18,03,04,11.50
2015,05,18,03,05,11.50
2015,05,18,03,06,11.40
2015,05,18,03,07,11.40
2015,05,18,03,08,11.40
2015,05,18,03,09,11.40
2015,05,18,03,10,11.40
2015,05,18,03,11,11.40
2015,05,18,03,12,11.40
2015,05,18,03,13,11.30
2015,05,18,03,14,11.30
2015,05,18,03,15,11.30
2015,05,18,03,16,11.30
2015,05,18,03,17,11.30
2015,05,18,03,18,11.30
2015,05,18,03,19,11.30
2015,05,18,03,20,11.30
2015,05,18,03,21,11.30
2015,05,18,03,22,11.30
2015,05,18,03,23,11.20
2015,05,18,03,24,11.20
2015,05,18,03,25,11.20
2015,05,18,03,26,11.20
2015,05,18,03,27,11.20
2015,05,18,03,28,11.20
2015,05,18,03,29,11.20
2015,05,18,03,30,11.10
2015,05,18,03,31,11.10
2015,05,18,03,32,11.10
2015,05,18,03,33,11.10
2015,05,18,03,34,11.10
2015,05,18,03,35,11.10
2015,05,18,03,36,11.10
2015,05,18,03,37,11.10
2015,05,18,03,38,11.10
2015,05,18,03,39,11.00
2015,05,18,03,40,11.00
2015,05,18,03,41,11.00
2015,05,18,03,42,11.00
2015,05,18,03,43,11.00
2015,05,18,03,44,11.00
2015,05,18,03,45,11.00
2015,05,18,03,46,11.00
2015,05,18,03,47,11.00
2015,05,18,03,48,11.00
2015,05,18,03,49,10.90
2015,05,18,03,50,10.90
2015,05,18,03,51,10.90
2015,05,18,03,52,10.90
2015,05,18,03,53,10.90
2015,05,18,03,54,10.90
2015,05,18,03,55,10.90
2015,05,18,03,56,10.90
2015,05,18,03,57,10.90
2015,05,18,03,58,10.90
2015,05,18,03,59,10.90
2015,05,18,04,00,10.90
2015,05,18,04,01,10.80
2015,05,18,04,02,10.80
2015,05,18,04,03,10.80
2015,05,18,04,04,10.80
2015,05,18,04,05,10.80
2015,05,18,04,06,10.80
2015,05,18,04,07,10.80
2015,05,18,04,08,10.80
2015,05,18,04,09,10.90
2015,05,18,04,10,11.00
2015,05,18,04,11,11.00
2015,05,18,04,12,11.10
2015,05,18,04,13,11.20
2015,05,18,04,14,11.30
2015,05,18,04,15,11.30
2015,05,18,04,16,11.40
2015,05,18,04,17,11.50
2015,05,18,04,18,11.60
2015,05,18,04,19,11.70
2015,05,18,04,20,11.70
2015,05,18,04,21,11.80
2015,05,18,04,22,11.90
2015,05,18,04,23,12.00
2015,05,18,04,24,12.00
2015,05,18,04,25,12.10
2015,05,18,04,26,12.10
2015,05,18,04,27,12.10
2015,05,18,04,28,12.20
2015,05,18,04,29,12.20
2015,05,18,04,30,12.20
2015,05,18,04,31,12.20
2015,05,18,04,32,12.30
2015,05,18,04,33,12.30
2015,05,18,04,34,12.30
2015,05,18,04,35,12.40
2015,05,18,04,36,12.40
2015,05,18,04,37,12.40
2015,05,18,04,38,12.40
2015,05,18,04,39,12.50
2015,05,18,04,40,12.50
2015,05,18,04,41,12.60
2015,05,18,04,42,12.60
2015,05,18,04,43,12.60
2015,05,18,04,44,12.70
2015,05,18,04,45,12.70
2015,05,18,04,46,12.70
2015,05,18,04,47,12.80
2015,05,18,04,48,12.80
2015,05,18,04,49,12.80
2015,05,18,04,50,12.80
2015,05,18,04,51,12.90
2015,05,18,04,52,12.90
2015,05,18,04,53,13.00
2015,05,18,04,54,13.00
2015,05,18,04,55,13.10
2015,05,18,04,56,13.10
2015,05,18,04,57,13.10
2015,05,18,04,58,13.10
2015,05,18,04,59,13.20
2015,05,18,05,00,13.20
2015,05,18,05,01,13.20
2015,05,18,05,02,13.30
2015,05,18,05,03,13.30
2015,05,18,05,04,13.30
2015,05,18,05,05,13.30
2015,05,18,05,06,13.30
2015,05,18,05,07,13.30
2015,05,18,05,08,13.30
2015,05,18,05,09,13.30
2015,05,18,05,10,13.30
2015,05,18,05,11,13.30
2015,05,18,05,12,13.40
2015,05,18,05,13,13.40
2015,05,18,05,14,13.40
2015,05,18,05,15,13.40
2015,05,18,05,16,13.40
2015,05,18,05,17,13.40
2015,05,18,05,18,13.50
2015,05,18,05,19,13.50
2015,05,18,05,20,13.50
2015,05,18,05,21,13.50
2015,05,18,05,22,13.50
2015,05,18,05,23,13.50
2015,05,18,05,24,13.50
2015,05,18,05,25,13.50
2015,05,18,05,26,13.50
2015,05,18,05,27,13.50
2015,05,18,05,28,13.50
2015,05,18,05,29,13.60
2015,05,18,05,30,13.60
2015,05,18,05,31,13.60
2015,05,18,05,32,13.60
2015,05,18,05,33,13.50
2015,05,18,05,34,13.50
2015,05,18,05,35,13.50
2015,05,18,05,36,13.50
2015,05,18,05,37,13.50
2015,05,18,05,38,13.50
2015,05,18,05,39,13.40
2015,05,18,05,40,13.40
2015,05,18,05,41,13.40
2015,05,18,05,42,13.30
2015,05,18,05,43,13.30
2015,05,18,05,44,13.30
2015,05,18,05,45,13.30
2015,05,18,05,46,13.30
2015,05,18,05,47,13.30
2015,05,18,05,48,13.30
2015,05,18,05,49,13.30
2015,05,18,05,50,13.30
2015,05,18,05,51,13.30
2015,05,18,05,52,13.30
2015,05,18,05,53,13.30
2015,05,18,05,54,13.30
2015,05,18,05,55,13.30
2015,05,18,05,56,13.30
2015,05,18,05,57,13.30
2015,05,18,05,58,13.30
2015,05,18,05,59,13.30
2015,05,18,06,00,13.30
2015,05,18,06,01,13.30
2015,05,18,06,02,13.30
2015,05,18,06,03,13.20
2015,05,18,06,04,13.20
2015,05,18,06,05,13.20
2015,05,18,06,06,13.20
2015,05,18,06,07,13.20
2015,05,18,06,08,13.20
2015,05,18,06,09,13.20
2015,05,18,06,10,13.10
2015,05,18,06,11,13.10
2015,05,18,06,12,13.10
2015,05,18,06,13,13.10
2015,05,18,06,14,13.10
2015,05,18,06,15,13.20
2015,05,18,06,16,13.20
2015,05,18,06,17,13.20
2015,05,18,06,18,13.20
2015,05,18,06,19,13.20
2015,05,18,06,20,13.20
2015,05,18,06,21,13.20
2015,05,18,06,22,13.30
2015,05,18,06,23,13.30
2015,05,18,06,24,13.30
2015,05,18,06,25,13.30
2015,05,18,06,26,13.30
2015,05,18,06,27,13.40
2015,05,18,06,28,13.40
2015,05,18,06,29,13.40
2015,05,18,06,30,13.40
2015,05,18,06,31,13.40
2015,05,18,06,32,13.40
2015,05,18,06,33,13.50
2015,05,18,06,34,13.50
2015,05,18,06,35,13.60
2015,05,18,06,36,13.60
2015,05,18,06,37,13.60
2015,05,18,06,38,13.60
2015,05,18,06,39,13.60
2015,05,18,06,40,13.70
2015,05,18,06,41,13.70
2015,05,18,06,42,13.70
2015,05,18,06,43,13.70
2015,05,18,06,44,13.70
2015,05,18,06,45,13.70
2015,05,18,06,46,13.80
2015,05,18,06,47,13.80
2015,05,18,06,48,13.80
2015,05,18,06,49,13.80
2015,05,18,06,50,13.80
2015,05,18,06,51,13.80
2015,05,18,06,52,13.80
2015,05,18,06,53,13.90
2015,05,18,06,54,13.90
2015,05,18,06,55,13.90
2015,05,18,06,56,13.90
2015,05,18,06,57,13.90
2015,05,18,06,58,13.90
2015,05,18,06,59,14.00
2015,05,18,07,00,14.00
2015,05,18,07,01,14.00
2015,05,18,07,02,14.00
2015,05,18,07,03,14.00
2015,05,18,07,04,14.10
2015,05,18,07,05,14.10
2015,05,18,07,06,14.10
2015,05,18,07,07,14.10
2015,05,18,07,08,14.10
2015,05,18,07,09,14.10
2015,05,18,07,10,14.10
2015,05,18,07,11,14.10
2015,05,18,07,12,14.10
2015,05,18,07,13,14.10
2015,05,18,07,14,14.10
2015,05,18,07,15,14.10
2015,05,18,07,16,14.10
2015,05,18,07,17,14.10
2015,05,18,07,18,14.10
2015,05,18,07,19,14.10
2015,05,18,07,20,14.10
2015,05,18,07,21,14.10
2015,05,18,07,22,14.10
2015,05,18,07,23,14.10
2015,05,18,07,24,14.10
2015,05,18,07,25,14.10
2015,05,18,07,26,14.10
2015,05,18,07,27,14.10
2015,05,18,07,28,14.10
2015,05,18,07,29,14.10
2015,05,18,07,30,14.10
2015,05,18,07,31,14.00
2015,05,18,07,32,14.00
2015,05,18,07,33,14.00
2015,05,18,07,34,13.90
2015,05,18,07,35,13.90
2015,05,18,07,36,13.90
2015,05,18,07,37,13.90
2015,05,18,07,38,13.80
2015,05,18,07,39,13.80
2015,05,18,07,40,13.80
2015,05,18,07,41,13.70
2015,05,18,07,42,13.70
2015,05,18,07,43,13.70
2015,05,18,07,44,13.70
2015,05,18,07,45,13.60
2015,05,18,07,46,13.60
2015,05,18,07,47,13.60
2015,05,18,07,48,13.60
2015,05,18,07,49,13.60
2015,05,18,07,50,13.60
2015,05,18,07,51,13.60
2015,05,18,07,52,13.60
2015,05,18,07,53,13.60
2015,05,18,07,54,13.60
2015,05,18,07,55,13.50
2015,05,18,07,56,13.50
2015,05,18,07,57,13.50
2015,05,18,07,58,13.50
2015,05,18,07,59,13.50
2015,05,18,08,00,13.40
2015,05,18,08,01,13.40
2015,05,18,08,02,13.40
2015,05,18,08,03,13.40
2015,05,18,08,04,13.40
2015,05,18,08,05,13.40
2015,05,18,08,06,13.40
2015,05,18,08,07,13.40
2015,05,18,08,08,13.40
2015,05,18,08,09,13.40
2015,05,18,08,10,13.40
2015,05,18,08,11,13.40
2015,05,18,08,12,13.50
2015,05,18,08,13,13.50
2015,05,18,08,14,13.50
2015,05,18,08,15,13.50
2015,05,18,08,16,13.40
2015,05,18,08,17,13.40
2015,05,18,08,18,13.40
2015,05,18,08,19,13.40
2015,05,18,08,20,13.40
2015,05,18,08,21,13.40
2015,05,18,08,22,13.40
2015,05,18,08,23,13.40
2015,05,18,08,24,13.40
2015,05,18,08,25,13.40
2015,05,18,08,26,13.40
2015,05,18,08,27,13.40
2015,05,18,08,28,13.40
2015,05,18,08,29,13.40
2015,05,18,08,30,13.40
2015,05,18,08,31,13.40
2015,05,18,08,32,13.40
2015,05,18,08,33,13.40
2015,05,18,08,34,13.40
2015,05,18,08,35,13.40
2015,05,18,08,36,13.40
2015,05,18,08,37,13.40
2015,05,18,08,38,13.40
2015,05,18,08,39,13.40
2015,05,18,08,40,13.50
2015,05,18,08,41,13.40
2015,05,18,08,42,13.40
2015,05,18,08,43,13.40
2015,05,18,08,44,13.40
2015,05,18,08,45,13.40
2015,05,18,08,46,13.40
2015,05,18,08,47,13.40
2015,05,18,08,48,13.40
2015,05,18,08,49,13.40
2015,05,18,08,50,13.40
2015,05,18,08,51,13.40
2015,05,18,08,52,13.40
2015,05,18,08,53,13.50
2015,05,18,08,54,13.50
2015,05,18,08,55,13.50
2015,05,18,08,56,13.50
2015,05,18,08,57,13.50
2015,05,18,08,58,13.50
2015,05,18,08,59,13.50
2015,05,18,09,00,13.50
2015,05,18,09,01,13.50
2015,05,18,09,02,13.50
2015,05,18,09,03,13.50
2015,05,18,09,04,13.50
2015,05,18,09,05,13.50
2015,05,18,09,06,13.50
2015,05,18,09,07,13.60
2015,05,18,09,08,13.60
2015,05,18,09,09,13.60
2015,05,18,09,10,13.60
2015,05,18,09,11,13.60
2015,05,18,09,12,13.60
2015,05,18,09,13,13.60
2015,05,18,09,14,13.60
2015,05,18,09,15,13.60
2015,05,18,09,16,13.60
2015,05,18,09,17,13.60
2015,05,18,09,18,13.60
2015,05,18,09,19,13.60
2015,05,18,09,20,13.70
2015,05,18,09,21,13.70
2015,05,18,09,22,13.70
2015,05,18,09,23,13.80
2015,05,18,09,24,13.80
2015,05,18,09,25,13.80
2015,05,18,09,26,13.80
2015,05,18,09,27,13.90
2015,05,18,09,28,13.90
2015,05,18,09,29,14.00
2015,05,18,09,30,14.10
2015,05,18,09,31,14.20
2015,05,18,09,32,14.20
2015,05,18,09,33,14.30
2015,05,18,09,34,14.30
2015,05,18,09,35,14.30
2015,05,18,09,36,14.30
2015,05,18,09,37,14.40
2015,05,18,09,38,14.40
2015,05,18,09,39,14.50
2015,05,18,09,40,14.60
2015,05,18,09,41,14.70
2015,05,18,09,42,14.90
2015,05,18,09,43,15.00
2015,05,18,09,44,15.00
2015,05,18,09,45,15.00
2015,05,18,09,46,15.20
2015,05,18,09,47,15.20
2015,05,18,09,48,15.20
2015,05,18,09,49,15.10
2015,05,18,09,50,15.00
2015,05,18,09,51,15.00
2015,05,18,09,52,15.00
2015,05,18,09,53,15.00
2015,05,18,09,54,15.00
2015,05,18,09,55,15.00
2015,05,18,09,56,15.00
2015,05,18,09,57,15.00
2015,05,18,09,58,15.00
2015,05,18,09,59,15.00
2015,05,18,10,00,15.00
2015,05,18,10,01,15.00
2015,05,18,10,02,15.00
2015,05,18,10,03,15.00
2015,05,18,10,04,15.00
2015,05,18,10,05,15.00
2015,05,18,10,06,15.00
2015,05,18,10,07,15.00
2015,05,18,10,08,15.00
2015,05,18,10,09,14.90
2015,05,18,10,10,14.90
2015,05,18,10,11,14.90
2015,05,18,10,12,14.90
2015,05,18,10,13,14.90
2015,05,18,10,14,14.80
2015,05,18,10,15,14.80
2015,05,18,10,16,14.80
2015,05,18,10,17,14.80
2015,05,18,10,18,14.80
2015,05,18,10,19,14.80
2015,05,18,10,20,14.80
2015,05,18,10,21,14.80
2015,05,18,10,22,14.80
2015,05,18,10,23,14.80
2015,05,18,10,24,14.80
2015,05,18,10,25,14.80
2015,05,18,10,26,14.90
2015,05,18,10,27,14.90
2015,05,18,10,28,14.90
2015,05,18,10,29,14.90
2015,05,18,10,30,14.90
2015,05,18,10,31,14.90
2015,05,18,10,32,14.90
2015,05,18,10,33,14.90
2015,05,18,10,34,14.90
2015,05,18,10,35,14.90
2015,05,18,10,36,14.90
2015,05,18,10,37,14.90
2015,05,18,10,38,15.00
2015,05,18,10,39,15.00
2015,05,18,10,40,15.00
2015,05,18,10,41,15.00
2015,05,18,10,42,15.00
2015,05,18,10,43,15.00
2015,05,18,10,44,15.00
2015,05,18,10,45,15.00
2015,05,18,10,46,15.00
2015,05,18,10,47,15.00
2015,05,18,10,48,15.00
2015,05,18,10,49,15.00
2015,05,18,10,50,15.00
2015,05,18,10,51,15.00
2015,05,18,10,52,15.00
2015,05,18,10,53,15.00
2015,05,18,10,54,15.00
2015,05,18,10,55,15.00
2015,05,18,10,56,15.00
2015,05,18,10,57,15.00
2015,05,18,10,58,15.00
2015,05,18,10,59,15.00
2015,05,18,11,00,15.00
2015,05,18,11,01,15.00
2015,05,18,11,02,15.00
2015,05,18,11,03,15.00
2015,05,18,11,04,15.00
2015,05,18,11,05,15.10
2015,05,18,11,06,15.10
2015,05,18,11,07,15.10
2015,05,18,11,08,15.10
2015,05,18,11,09,15.20
2015,05,18,11,10,15.20
2015,05,18,11,11,15.20
2015,05,18,11,12,15.30
2015,05,18,11,13,15.30
2015,05,18,11,14,15.40
2015,05,18,11,15,15.50
2015,05,18,11,16,15.50
2015,05,18,11,17,15.50
2015,05,18,11,18,15.60
2015,05,18,11,19,15.60
2015,05,18,11,20,15.60
2015,05,18,11,21,15.60
2015,05,18,11,22,15.60
2015,05,18,11,23,15.60
2015,05,18,11,24,15.70
2015,05,18,11,25,15.70
2015,05,18,11,26,15.70
2015,05,18,11,27,15.70
2015,05,18,11,28,15.80
2015,05,18,11,29,15.80
2015,05,18,11,30,15.80
2015,05,18,11,31,15.80
2015,05,18,11,32,15.80
2015,05,18,11,33,15.90
2015,05,18,11,34,15.90
2015,05,18,11,35,16.00
2015,05,18,11,36,16.00
2015,05,18,11,37,16.10
2015,05,18,11,38,16.10
2015,05,18,11,39,16.20
2015,05,18,11,40,16.20
2015,05,18,11,41,16.30
2015,05,18,11,42,16.30
2015,05,18,11,43,16.40
2015,05,18,11,44,16.50
2015,05,18,11,45,16.60
2015,05,18,11,46,16.70
2015,05,18,11,47,16.70
2015,05,18,11,48,16.80
2015,05,18,11,49,16.80
2015,05,18,11,50,16.80
2015,05,18,11,51,16.90
2015,05,18,11,52,16.90
2015,05,18,11,53,16.90
2015,05,18,11,54,16.90
2015,05,18,11,55,16.90
2015,05,18,11,56,16.90
2015,05,18,11,57,16.90
2015,05,18,11,58,16.90
2015,05,18,11,59,16.90
2015,05,18,12,00,17.00
2015,05,18,12,01,17.00
2015,05,18,12,02,17.00
2015,05,18,12,03,17.00
2015,05,18,12,04,17.00
2015,05,18,12,05,17.00
2015,05,18,12,06,17.00
2015,05,18,12,07,17.10
2015,05,18,12,08,17.10
2015,05,18,12,09,17.10
2015,05,18,12,10,17.10
2015,05,18,12,11,17.10
2015,05,18,12,12,17.20
2015,05,18,12,13,17.20
2015,05,18,12,14,17.30
2015,05,18,12,15,17.30
2015,05,18,12,16,17.40
2015,05,18,12,17,17.50
2015,05,18,12,18,17.60
2015,05,18,12,19,17.60
2015,05,18,12,20,17.60
2015,05,18,12,21,17.70
2015,05,18,12,22,17.70
2015,05,18,12,23,17.80
2015,05,18,12,24,17.80
2015,05,18,12,25,17.90
2015,05,18,12,26,17.90
2015,05,18,12,27,17.90
2015,05,18,12,28,17.90
2015,05,18,12,29,17.90
2015,05,18,12,30,18.00
2015,05,18,12,31,18.00
2015,05,18,12,32,18.00
2015,05,18,12,33,18.10
2015,05,18,12,34,18.10
2015,05,18,12,35,18.10
2015,05,18,12,36,18.20
2015,05,18,12,37,18.20
2015,05,18,12,38,18.30
2015,05,18,12,39,18.30
2015,05,18,12,40,18.40
2015,05,18,12,41,18.50
2015,05,18,12,42,18.60
2015,05,18,12,43,18.60
2015,05,18,12,44,18.70
2015,05,18,12,45,18.80
2015,05,18,12,46,18.90
2015,05,18,12,47,19.00
2015,05,18,12,48,19.10
2015,05,18,12,49,19.20
2015,05,18,12,50,19.20
2015,05,18,12,51,19.20
2015,05,18,12,52,19.30
2015,05,18,12,53,19.30
2015,05,18,12,54,19.30
2015,05,18,12,55,19.40
2015,05,18,12,56,19.40
2015,05,18,12,57,19.40
2015,05,18,12,58,19.40
2015,05,18,12,59,19.50
2015,05,18,13,00,19.60
2015,05,18,13,01,19.60
2015,05,18,13,02,19.60
2015,05,18,13,03,19.60
2015,05,18,13,04,19.60
2015,05,18,13,05,19.60
2015,05,18,13,06,19.60
2015,05,18,13,07,19.50
2015,05,18,13,08,19.40
2015,05,18,13,09,19.40
2015,05,18,13,10,19.40
2015,05,18,13,11,19.30
2015,05,18,13,12,19.30
2015,05,18,13,13,19.30
2015,05,18,13,14,19.20
2015,05,18,13,15,19.10
2015,05,18,13,16,19.10
2015,05,18,13,17,19.10
2015,05,18,13,18,19.00
2015,05,18,13,19,19.00
2015,05,18,13,20,19.10
2015,05,18,13,21,19.10
2015,05,18,13,22,19.10
2015,05,18,13,23,19.10
2015,05,18,13,24,19.10
2015,05,18,13,25,19.10
2015,05,18,13,26,19.10
2015,05,18,13,27,19.20
2015,05,18,13,28,19.20
2015,05,18,13,29,19.30
2015,05,18,13,30,19.30
2015,05,18,13,31,19.30
2015,05,18,13,32,19.30
2015,05,18,13,33,19.30
2015,05,18,13,34,19.20
2015,05,18,13,35,19.20
2015,05,18,13,36,19.20
2015,05,18,13,37,19.20
2015,05,18,13,38,19.20
2015,05,18,13,39,19.20
2015,05,18,13,40,19.30
2015,05,18,13,41,19.30
2015,05,18,13,42,19.30
2015,05,18,13,43,19.30
2015,05,18,13,44,19.30
2015,05,18,13,45,19.20
2015,05,18,13,46,19.20
2015,05,18,13,47,19.20
2015,05,18,13,48,19.20
2015,05,18,13,49,19.20
2015,05,18,13,50,19.30
2015,05,18,13,51,19.30
2015,05,18,13,52,19.30
2015,05,18,13,53,19.30
2015,05,18,13,54,19.30
2015,05,18,13,55,19.30
2015,05,18,13,56,19.30
2015,05,18,13,57,19.20
2015,05,18,13,58,19.20
2015,05,18,13,59,19.10
2015,05,18,14,00,19.10
2015,05,18,14,01,19.10
2015,05,18,14,02,19.20
2015,05,18,14,03,19.20
2015,05,18,14,04,19.20
2015,05,18,14,05,19.20
2015,05,18,14,06,19.10
2015,05,18,14,07,19.10
2015,05,18,14,08,19.10
2015,05,18,14,09,19.00
2015,05,18,14,10,19.00
2015,05,18,14,11,19.00
2015,05,18,14,12,19.00
2015,05,18,14,13,18.90
2015,05,18,14,14,18.90
2015,05,18,14,15,18.90
2015,05,18,14,16,18.90
2015,05,18,14,17,18.90
2015,05,18,14,18,18.80
2015,05,18,14,19,18.80
2015,05,18,14,20,18.70
2015,05,18,14,21,18.70
2015,05,18,14,22,18.70
2015,05,18,14,23,18.70
2015,05,18,14,24,18.60
2015,05,18,14,25,18.50
2015,05,18,14,26,18.50
2015,05,18,14,27,18.50
2015,05,18,14,28,18.60
2015,05,18,14,29,18.60
2015,05,18,14,30,18.60
2015,05,18,14,31,18.60
2015,05,18,14,32,18.60
2015,05,18,14,33,18.60
2015,05,18,14,34,18.60
2015,05,18,14,35,18.60
2015,05,18,14,36,18.60
2015,05,18,14,37,18.70
2015,05,18,14,38,18.80
2015,05,18,14,39,18.80
2015,05,18,14,40,18.90
2015,05,18,14,41,19.00
2015,05,18,14,42,19.00
2015,05,18,14,43,19.10
2015,05,18,14,44,19.10
2015,05,18,14,45,19.20
2015,05,18,14,46,19.20
2015,05,18,14,47,19.30
2015,05,18,14,48,19.30
2015,05,18,14,49,19.40
2015,05,18,14,50,19.40
2015,05,18,14,51,19.40
2015,05,18,14,52,19.40
2015,05,18,14,53,19.50
2015,05,18,14,54,19.50
2015,05,18,14,55,19.50
2015,05,18,14,56,19.40
2015,05,18,14,57,19.40
2015,05,18,14,58,19.50
2015,05,18,14,59,19.50
2015,05,18,15,00,19.50
2015,05,18,15,01,19.50
2015,05,18,15,02,19.50
2015,05,18,15,03,19.50
2015,05,18,15,04,19.50
2015,05,18,15,05,19.50
2015,05,18,15,06,19.60
2015,05,18,15,07,19.60
2015,05,18,15,08,19.60
2015,05,18,15,09,19.70
2015,05,18,15,10,19.80
2015,05,18,15,11,19.80
2015,05,18,15,12,19.90
2015,05,18,15,13,19.90
2015,05,18,15,14,19.90
2015,05,18,15,15,19.90
2015,05,18,15,16,20.00
2015,05,18,15,17,20.00
2015,05,18,15,18,20.10
2015,05,18,15,19,20.10
2015,05,18,15,20,20.20
2015,05,18,15,21,20.20
2015,05,18,15,22,20.20
2015,05,18,15,23,20.20
2015,05,18,15,24,20.20
2015,05,18,15,25,20.20
2015,05,18,15,26,20.20
2015,05,18,15,27,20.20
2015,05,18,15,28,20.20
2015,05,18,15,29,20.20
2015,05,18,15,30,20.10
2015,05,18,15,31,20.10
2015,05,18,15,32,20.20
2015,05,18,15,33,20.20
2015,05,18,15,34,20.30
2015,05,18,15,35,20.30
2015,05,18,15,36,20.30
2015,05,18,15,37,20.30
2015,05,18,15,38,20.30
2015,05,18,15,39,20.20
2015,05,18,15,40,20.20
2015,05,18,15,41,20.20
2015,05,18,15,42,20.20
2015,05,18,15,43,20.20
2015,05,18,15,44,20.30
2015,05,18,15,45,20.30
2015,05,18,15,46,20.40
2015,05,18,15,47,20.40
2015,05,18,15,48,20.40
2015,05,18,15,49,20.40
2015,05,18,15,50,20.40
2015,05,18,15,51,20.40
2015,05,18,15,52,20.40
2015,05,18,15,53,20.40
2015,05,18,15,54,20.40
2015,05,18,15,55,20.40
2015,05,18,15,56,20.50
2015,05,18,15,57,20.50
2015,05,18,15,58,20.60
2015,05,18,15,59,20.60
2015,05,18,16,00,20.60
2015,05,18,16,01,20.60
2015,05,18,16,02,20.60
2015,05,18,16,03,20.50
2015,05,18,16,04,20.40
2015,05,18,16,05,20.40
2015,05,18,16,06,20.30
2015,05,18,16,07,20.30
2015,05,18,16,08,20.30
2015,05,18,16,09,20.30
2015,05,18,16,10,20.30
2015,05,18,16,11,20.40
2015,05,18,16,12,20.40
2015,05,18,16,13,20.50
2015,05,18,16,14,20.50
2015,05,18,16,15,20.60
2015,05,18,16,16,20.70
2015,05,18,16,17,20.70
2015,05,18,16,18,20.80
2015,05,18,16,19,20.90
2015,05,18,16,20,21.00
2015,05,18,16,21,21.10
2015,05,18,16,22,21.20
2015,05,18,16,23,21.30
2015,05,18,16,24,21.30
2015,05,18,16,25,21.40
2015,05,18,16,26,21.50
2015,05,18,16,27,21.50
2015,05,18,16,28,21.60
2015,05,18,16,29,21.70
2015,05,18,16,30,21.70
2015,05,18,16,31,21.80
2015,05,18,16,32,21.80
2015,05,18,16,33,21.90
2015,05,18,16,34,21.90
2015,05,18,16,35,22.00
2015,05,18,16,36,22.10
2015,05,18,16,37,22.10
2015,05,18,16,38,22.20
2015,05,18,16,39,22.30
2015,05,18,16,40,22.40
2015,05,18,16,41,22.40
2015,05,18,16,42,22.50
2015,05,18,16,43,22.60
2015,05,18,16,44,22.60
2015,05,18,16,45,22.60
2015,05,18,16,46,22.50
2015,05,18,16,47,22.50
2015,05,18,16,48,22.40
2015,05,18,16,49,22.30
2015,05,18,16,50,22.20
2015,05,18,16,51,22.10
2015,05,18,16,52,22.00
2015,05,18,16,53,21.80
2015,05,18,16,54,21.70
2015,05,18,16,55,21.60
2015,05,18,16,56,21.50
2015,05,18,16,57,21.40
2015,05,18,16,58,21.30
2015,05,18,16,59,21.20
2015,05,18,17,00,21.10
2015,05,18,17,01,21.00
2015,05,18,17,02,20.90
2015,05,18,17,03,20.90
2015,05,18,17,04,20.80
2015,05,18,17,05,20.80
2015,05,18,17,06,20.70
2015,05,18,17,07,20.60
2015,05,18,17,08,20.60
2015,05,18,17,09,20.50
2015,05,18,17,10,20.50
2015,05,18,17,11,20.40
2015,05,18,17,12,20.40
2015,05,18,17,13,20.40
2015,05,18,17,14,20.30
2015,05,18,17,15,20.30
2015,05,18,17,16,20.30
2015,05,18,17,17,20.30
2015,05,18,17,18,20.20
2015,05,18,17,19,20.20